Regional Weather Roundup
Issued by NWS

Home | Current Version | Previous Version | Graphics & Text | Print | Product List | Glossary On
Versions: 1 2 3 4 5 6 7 8 9 10 11 12 13 14 15 16 17 18 19 20 21 22 23 24 25 26 27 28 29 30 31 32 33 34 35 36 37 38 39 40 41 42 43 44 45 46 47 48 49 50
000
ASUS44 KMEG 270110
RWRTN
TENNESSEE HOURLY STATE WEATHER ROUNDUP
NATIONAL WEATHER SERVICE MEMPHIS TN
800 PM CDT WED APR 26 2017

TNZ002-004-019-021-049-052-054-088>092-270200-
WEST TENNESSEE

CITY           SKY/WX    TMP DP  RH WIND       PRES   REMARKS
MEMPHIS INTL   TSTM      62  62 100 W6        29.53R FOG
NWS MEMPHIS      N/A     65 N/A N/A MISG        N/A
JACKSON        CLOUDY    75  58  55 S13G23    29.50F
DYERSBURG      HVY RAIN  58  57  97 NW9       29.57R
SOMERVILLE     MOCLDY    75  59  57 S12G20    29.47F
UNION CITY     CLOUDY    59  55  88 N7G14     29.54F
BOLIVAR        CLEAR     73  59  60 SE10G16   29.51F
PARIS          CLEAR     72  55  56 S8        29.53R
HUNTINGDON     CLEAR     75  57  53 S10       29.50F
LEXINGTON      CLEAR     75  57  53 S10       29.55S
SAVANNAH       CLEAR     73  59  60 S8        29.57R HAZE
$$

TNZ008-025-027-028-033-062-065-066-270200-
NORTH MIDDLE TENNESSEE

CITY           SKY/WX    TMP DP  RH WIND       PRES   REMARKS
NASHVILLE      CLOUDY    75  58  55 S14G25    29.59F
PORTLAND       CLEAR     73  59  60 S12G20    29.58S
CLARKSVILLE    CLEAR     75  56  51 S10G22    29.54S
SMYRNA         CLEAR     74  59  59 S7        29.61S
COOKEVILLE     CLEAR     75  57  53 S9G16     29.64R
GALLATIN       CLEAR     75  59  57 S8        29.62S
CROSSVILLE     CLEAR     71  56  58 S9G17     29.71S
$$

TNZ061-075-076-078-094-096-097-270200-
SOUTH MIDDLE TENNESSEE

CITY           SKY/WX    TMP DP  RH WIND       PRES   REMARKS
FAYETTEVILLE   CLEAR     72  59  64 S14       29.64F
TULLAHOMA      CLEAR     72  57  60 S12       29.67R
WINCHESTER     CLEAR     73  57  56 S6        29.68R
MCMINNVILLE    CLEAR     73  59  60 CALM      29.65F
COLUMBIA       CLEAR     73  63  68 S7        29.57F
SHELBYVILLE    CLEAR     73  61  64 S10       29.63F
$$

TNZ017-018-042-046-047-270200-
NORTHEAST TENNESSEE

CITY           SKY/WX    TMP DP  RH WIND       PRES   REMARKS
TRI CITIES     PTCLDY    74  58  57 SE5       29.72R
ELIZABETHTON   CLEAR     73  57  56 E6        29.73S
$$

TNZ012-013-036-069-073-074-270200-
CENTRAL EAST TENNESSEE

CITY           SKY/WX    TMP DP  RH WIND       PRES   REMARKS
KNOXVILLE      NOT AVBL
OAK RIDGE      CLEAR     75  58  55 SW3       29.70R
DOWNTOWN KNOXV CLEAR     68  63  83 CALM      29.69R
GATLINBURG     CLEAR     70  61  73 CALM      29.69R
MORRISTOWN     PTCLDY    73  61  64 CALM      29.70R HAZE
JACKSBORO      CLEAR     70  59  68 CALM      29.71R
$$

TNZ083-085-099-270200-
SOUTHEAST TENNESSEE

CITY           SKY/WX    TMP DP  RH WIND       PRES   REMARKS
CHATTANOOGA    PTCLDY    76  57  51 S8        29.70R
$$

SKY/WX REPORTED AS FAIR MEANS FEW OR NO CLOUDS BELOW
12 THOUSAND FEET.




USA.gov is the U.S. government's official web portal to all federal, state and local government web resources and services.